Regional Weather Roundup
Issued by NWS Cleveland, OH

Home | Current Version | Previous Version | Graphics & Text | Print | Product List | Glossary On
Versions: 1 2 3 4 5 6 7 8 9 10 11 12 13 14 15 16 17 18 19 20 21 22 23 24 25 26 27 28 29 30 31 32 33 34 35 36 37 38 39 40 41 42 43 44 45 46 47 48 49 50
000
ASUS41 KCLE 250210
RWRCLE
OHIO REGIONAL WEATHER ROUNDUP
NATIONAL WEATHER SERVICE CLEVELAND, OH
1000 PM EDT FRI OCT 24 2014

NOTE: "FAIR" INDICATES FEW OR NO CLOUDS BELOW 12,000 FEET WITH NO
SIGNIFICANT WEATHER AND/OR OBSTRUCTIONS TO VISIBILITY.

OHZ001>008-015>018-024>027-034-035-043-044-250300-
   NORTHWEST OHIO

CITY           SKY/WX    TMP DP  RH WIND       PRES   REMARKS
DEFIANCE       MOCLDY    49  45  86 CALM      29.99F
FINDLAY        MOCLDY    47  43  86 S6        29.99F
TOLEDO EXPRESS CLOUDY    50  45  83 CALM      29.99S
TOLEDO EXEC    CLOUDY    51  44  77 S3        30.00S
LIMA           CLEAR     52  43  71 S6        30.01S
$$

OHZ009>014-019>023-028>033-038-089-250300-
   NORTHEAST OHIO

CITY           SKY/WX    TMP DP  RH WIND       PRES   REMARKS
CLE-HOPKINS    PTCLDY    55  45  68 CALM      30.02S
CLE-LAKEFRONT  CLOUDY    54  43  66 SW6       29.99S
CUY CO. ARPT   MOCLDY    50  48  93 S5        30.00F
LORAIN-ELYRIA  CLOUDY    51  46  83 W3        30.01S
ASHTABULA      CLOUDY    50  45  83 CALM      30.00F
AKRON-CANTON   CLOUDY    53  44  71 CALM      30.01S
WOOSTER        CLEAR     50  42  74 CALM      30.01F
MANSFIELD      PTCLDY    53  39  59 CALM      30.01S
YOUNGSTOWN     MOCLDY    48  41  76 CALM      30.00S
$$

OHZ042-051>053-060>062-070>072-077>081-250300-
  SOUTHWEST OHIO

CITY           SKY/WX    TMP DP  RH WIND       PRES   REMARKS
CINC-COVINGTON CLEAR     49  41  74 S3        30.04F
CINC-LUNKEN    CLEAR     46  43  89 CALM      30.06S
HAMILTON       CLEAR     43  41  93 CALM      30.05S
DAYTON         PTCLDY    54  41  61 SW7       30.03F
WRIGHT-PAT AFB CLEAR     51  42  71 S2        30.03S
DAYTON GENERAL CLEAR     52  39  61 S5        30.03S
WILMINGTON     PTCLDY    49  39  68 CALM      30.04S
$$

OHZ036-037-039>041-045>050-054>059-063>069-073>076-082>088-250300-
  CENTRAL AND SOUTHEAST OHIO

CITY           SKY/WX    TMP DP  RH WIND       PRES   REMARKS
COLUMBUS       PTCLDY    50  40  68 SE5       30.02S
OSU AIRPORT    PTCLDY    52  37  56 SW7       30.02F
BOLTON FIELD   PTCLDY    49  38  66 CALM      30.03S
RICKENBACK AFB PTCLDY    48  38  70 CALM      30.02F
NEWARK         CLEAR     43  40  89 CALM      30.03R
MARION         PTCLDY    51  38  60 CALM      30.02R
LANCASTER      CLEAR     42  38  85 CALM      30.04S
ZANESVILLE     CLEAR     46  39  76 CALM      30.03S
NEW PHILLY     CLOUDY    50  43  77 SE3       30.03S
$$



USA.gov is the U.S. government's official web portal to all federal, state and local government web resources and services.